TimeCST,TemperatureF,Dew PointF,Humidity,Sea Level PressureIn,VisibilityMPH,Wind Direction,Wind SpeedMPH,Gust SpeedMPH,PrecipitationIn,Events,Conditions,WindDirDegrees,DateUTC
12:15 AM,26.1,24.6,94,29.83,1.8,East,11.5,18.4,N/A,Snow,Light Snow,90,2013-02-22 06:15:00
12:35 AM,25.7,24.3,94,29.82,1.5,East,10.4,16.1,N/A,Snow,Light Snow,80,2013-02-22 06:35:00
12:55 AM,25.5,23.7,93,29.82,4.0,East,8.1,-,N/A,Snow,Light Snow,80,2013-02-22 06:55:00
1:15 AM,25.5,23.4,92,29.81,4.0,East,9.2,18.4,N/A,Snow,Light Snow,80,2013-02-22 07:15:00
1:35 AM,25.3,23.0,91,29.81,4.0,East,10.4,17.3,N/A,Snow,Light Snow,80,2013-02-22 07:35:00
1:55 AM,25.0,23.0,92,29.80,3.0,ENE,9.2,18.4,N/A,Snow,Light Snow,70,2013-02-22 07:55:00
2:15 AM,24.8,22.8,92,29.79,5.0,ENE,8.1,17.3,N/A,Snow,Light Snow,70,2013-02-22 08:15:00
2:55 AM,24.8,23.0,93,29.79,5.0,East,6.9,-,N/A,Snow,Light Snow,90,2013-02-22 08:55:00
3:15 AM,24.8,23.0,93,29.78,3.0,East,5.8,-,N/A,Snow,Light Snow,90,2013-02-22 09:15:00
3:35 AM,24.8,23.0,93,29.77,3.0,East,5.8,-,N/A,Snow,Light Snow,80,2013-02-22 09:35:00
3:55 AM,24.8,23.0,93,29.76,2.5,Calm,Calm,-,N/A,Snow,Light Snow,0,2013-02-22 09:55:00
4:15 AM,24.8,23.0,93,29.76,2.5,Calm,Calm,-,N/A,Snow,Light Snow,0,2013-02-22 10:15:00
4:35 AM,24.6,23.0,94,29.77,3.0,Calm,Calm,-,N/A,Snow,Light Snow,0,2013-02-22 10:35:00
4:55 AM,24.8,23.2,94,29.76,3.0,Calm,Calm,-,N/A,Snow,Light Snow,0,2013-02-22 10:55:00
5:15 AM,24.6,23.0,94,29.77,3.0,Calm,Calm,-,N/A,Snow,Light Snow,0,2013-02-22 11:15:00
5:35 AM,24.8,23.4,94,29.77,4.0,Calm,Calm,-,N/A,Snow,Light Snow,0,2013-02-22 11:35:00
5:55 AM,24.6,23.4,95,29.78,5.0,Calm,Calm,-,N/A,Snow,Light Snow,0,2013-02-22 11:55:00
6:15 AM,24.6,23.0,94,29.77,5.0,Calm,Calm,-,N/A,Snow,Light Snow,0,2013-02-22 12:15:00
6:35 AM,24.1,22.8,95,29.78,4.0,Calm,Calm,-,N/A,,Overcast,0,2013-02-22 12:35:00
6:55 AM,23.7,22.5,95,29.79,4.0,WNW,3.5,-,N/A,Snow,Light Snow,290,2013-02-22 12:55:00
7:15 AM,23.9,22.8,96,29.79,1.8,WNW,4.6,-,N/A,Snow,Light Snow,300,2013-02-22 13:15:00
7:35 AM,24.3,23.0,95,29.79,1.0,NW,4.6,-,N/A,Snow,Light Snow,320,2013-02-22 13:35:00
7:55 AM,24.8,23.4,94,29.80,1.5,WNW,4.6,-,N/A,Snow,Light Snow,290,2013-02-22 13:55:00
8:15 AM,24.8,23.0,93,29.81,1.2,WNW,5.8,-,N/A,Snow,Light Snow,300,2013-02-22 14:15:00
8:35 AM,25.7,23.4,91,29.81,1.5,WNW,5.8,-,N/A,Snow,Light Snow,300,2013-02-22 14:35:00
8:55 AM,26.6,23.0,86,29.82,3.0,NW,4.6,-,N/A,,Overcast,310,2013-02-22 14:55:00
9:15 AM,27.1,22.8,84,29.83,4.0,West,4.6,-,N/A,,Scattered Clouds,280,2013-02-22 15:15:00
9:35 AM,27.5,23.0,83,29.84,5.0,West,5.8,-,N/A,,Mostly Cloudy,280,2013-02-22 15:35:00
9:55 AM,28.4,23.0,80,29.84,5.0,West,10.4,-,N/A,,Haze,280,2013-02-22 15:55:00
10:15 AM,29.1,22.6,77,29.85,7.0,West,10.4,-,N/A,Snow,Light Snow,280,2013-02-22 16:15:00
10:35 AM,28.4,21.9,77,29.86,5.0,West,13.8,-,N/A,Snow,Light Snow,260,2013-02-22 16:35:00
11:15 AM,29.8,23.0,76,29.88,5.0,West,10.4,16.1,N/A,Snow,Light Snow,270,2013-02-22 17:15:00
11:35 AM,30.2,23.0,75,29.88,5.0,West,12.7,-,N/A,Snow,Light Snow,260,2013-02-22 17:35:00
11:55 AM,30.9,22.6,71,29.88,7.0,West,13.8,-,N/A,Snow,Light Snow,270,2013-02-22 17:55:00
12:15 PM,30.9,22.3,70,29.88,10.0,West,12.7,-,N/A,,Scattered Clouds,270,2013-02-22 18:15:00
12:35 PM,31.5,22.1,68,29.88,10.0,West,13.8,19.6,N/A,,Mostly Cloudy,270,2013-02-22 18:35:00
1:15 PM,31.6,21.6,66,29.88,2.5,West,18.4,-,N/A,Rain,Freezing Rain,270,2013-02-22 19:15:00
1:35 PM,32.0,21.7,66,29.89,10.0,West,13.8,-,N/A,,Mostly Cloudy,260,2013-02-22 19:35:00
1:55 PM,31.8,21.6,66,29.89,10.0,West,17.3,23.0,N/A,,Mostly Cloudy,260,2013-02-22 19:55:00
2:15 PM,30.4,20.8,68,29.89,10.0,West,18.4,-,N/A,,Mostly Cloudy,270,2013-02-22 20:15:00
2:35 PM,30.7,20.5,66,29.90,10.0,West,16.1,23.0,N/A,,Mostly Cloudy,270,2013-02-22 20:35:00
2:55 PM,30.2,20.3,67,29.91,10.0,West,15.0,21.9,N/A,,Mostly Cloudy,270,2013-02-22 20:55:00
3:15 PM,29.3,19.9,68,29.91,10.0,West,16.1,-,N/A,,Mostly Cloudy,270,2013-02-22 21:15:00
3:35 PM,28.6,19.4,69,29.92,10.0,West,17.3,21.9,N/A,,Mostly Cloudy,270,2013-02-22 21:35:00
3:55 PM,27.7,19.2,71,29.94,10.0,WNW,12.7,23.0,N/A,,Mostly Cloudy,300,2013-02-22 21:55:00
4:15 PM,27.0,19.0,72,29.94,10.0,WNW,13.8,19.6,N/A,,Mostly Cloudy,300,2013-02-22 22:15:00
4:35 PM,26.6,18.5,71,29.95,10.0,WNW,11.5,-,N/A,,Overcast,290,2013-02-22 22:35:00
4:55 PM,26.2,18.3,72,29.95,10.0,WNW,13.8,17.3,N/A,,Overcast,290,2013-02-22 22:55:00
5:15 PM,26.1,17.6,70,29.96,10.0,WNW,12.7,19.6,N/A,,Overcast,300,2013-02-22 23:15:00
5:35 PM,25.7,18.0,73,29.96,10.0,WNW,10.4,17.3,N/A,,Overcast,290,2013-02-22 23:35:00
5:55 PM,25.7,17.6,71,29.96,10.0,WNW,10.4,-,N/A,,Mostly Cloudy,290,2013-02-22 23:55:00
6:15 PM,25.7,17.8,72,29.97,10.0,WNW,8.1,-,N/A,,Mostly Cloudy,290,2013-02-23 00:15:00
6:35 PM,25.7,18.0,73,29.97,10.0,West,10.4,-,N/A,,Mostly Cloudy,280,2013-02-23 00:35:00
6:55 PM,25.7,18.0,73,29.98,10.0,WNW,10.4,-,N/A,,Overcast,290,2013-02-23 00:55:00
7:15 PM,25.7,18.1,73,29.99,10.0,West,9.2,-,N/A,,Mostly Cloudy,280,2013-02-23 01:15:00
7:35 PM,25.5,18.5,75,29.99,10.0,West,10.4,-,N/A,,Scattered Clouds,270,2013-02-23 01:35:00
7:55 PM,25.3,18.3,75,29.99,10.0,West,10.4,-,N/A,,Scattered Clouds,270,2013-02-23 01:55:00
8:15 PM,25.2,18.1,75,29.99,10.0,West,6.9,-,N/A,,Mostly Cloudy,260,2013-02-23 02:15:00
8:35 PM,24.8,17.6,74,29.99,10.0,West,8.1,-,N/A,,Mostly Cloudy,270,2013-02-23 02:35:00
8:55 PM,24.8,17.6,74,29.99,10.0,West,9.2,-,N/A,,Mostly Cloudy,280,2013-02-23 02:55:00
9:15 PM,24.6,17.2,74,29.99,10.0,West,9.2,-,N/A,,Overcast,280,2013-02-23 03:15:00
9:35 PM,24.6,17.4,74,29.99,10.0,West,9.2,-,N/A,,Overcast,270,2013-02-23 03:35:00
9:55 PM,24.6,17.1,73,29.99,10.0,West,8.1,-,N/A,,Mostly Cloudy,260,2013-02-23 03:55:00
10:15 PM,24.4,17.1,73,29.99,10.0,West,6.9,-,N/A,,Overcast,260,2013-02-23 04:15:00
10:35 PM,24.3,17.2,75,29.99,10.0,West,10.4,-,N/A,,Overcast,260,2013-02-23 04:35:00
10:55 PM,23.9,17.2,76,29.99,10.0,West,9.2,-,N/A,,Mostly Cloudy,260,2013-02-23 04:55:00
11:15 PM,23.9,16.7,74,29.99,10.0,WSW,10.4,-,N/A,,Mostly Cloudy,250,2013-02-23 05:15:00
11:35 PM,23.7,16.5,74,29.99,10.0,WSW,6.9,-,N/A,,Mostly Cloudy,250,2013-02-23 05:35:00
11:55 PM,23.7,15.8,72,29.99,10.0,WSW,9.2,-,N/A,,Mostly Cloudy,250,2013-02-23 05:55:00